Winfield, KS

6:47 AM CST on December 11, 2019 (GMT -0600)
Strother

Weather History for KWLD - October, 2019

Change the Weather History Date:

Wednesday, October 16, 2019

  Actual Average Record
Temperature  
Mean Temperature 48 °F -  
Max Temperature 63 °F 69 °F 88 °F (2010)
Min Temperature 34 °F 46 °F 30 °F (2001)
Degree Days  
Heating Degree Days 16    
Moisture  
Dew Point 36 °F    
Average Humidity 66    
Maximum Humidity 89    
Minimum Humidity 37    
Precipitation  
Precipitation 0.00 in - - ()
Sea Level Pressure  
Sea Level Pressure 30.20 in    
Wind  
Wind Speed 4 mph ()    
Max Wind Speed 8 mph    
Max Gust Speed -    
Visibility 10.0 miles    
Events      
Averages and records for this station are not official NWS values.
T = Trace of Precipitation, MM = Missing Value Source: Averaged Metar Reports

Daily Weather History Graph

Daily Weather History Graph

Search for Another Location

Airport or City:

Astronomy

Oct. 16, 2019 Rise Set
Actual Time 7:36 AM CDT 6:50 PM CDT
Civil Twilight 7:10 AM CDT 7:16 PM CDT
Nautical Twilight 6:40 AM CDT 7:46 PM CDT
Astronomical Twilight 6:10 AM CDT 8:16 PM CDT
Moon 8:47 PM CDT (10/16) 10:06 AM CDT (10/16)
Length of Visible Light 12h 05m
Length of Day
11h 13m
Waning Gibbous, 92% of the Moon is Illuminated
Oct 16
Waning Gibbous
Oct 21
Last Quarter
Oct 27
New
Nov 4
First Quarter
Nov 12
Full

Hourly Weather History & Observations

Time (CDT) Temp. Windchill Dew Point Humidity Pressure Visibility Wind Dir Wind Speed Gust Speed Precip Events Conditions
12:54 AM 44.1 °F 39.5 °F 34.0 °F 68% 30.22 in 10.0 mi North 8.1 mph - N/A   Clear
1:54 AM 41.0 °F 38.0 °F 34.0 °F 76% 30.24 in 10.0 mi NNW 4.6 mph - N/A   Clear
2:54 AM 39.0 °F 34.0 °F 34.0 °F 82% 30.24 in 10.0 mi NW 6.9 mph - N/A   Clear
3:54 AM 37.0 °F 33.3 °F 33.1 °F 86% 30.25 in 10.0 mi NW 4.6 mph - N/A   Clear
4:54 AM 37.9 °F 33.5 °F 33.1 °F 83% 30.24 in 10.0 mi NW 5.8 mph - N/A   Clear
5:54 AM 36.0 °F 31.1 °F 32.0 °F 86% 30.24 in 10.0 mi NNW 5.8 mph - N/A   Clear
6:54 AM 37.9 °F - 33.1 °F 83% 30.24 in 10.0 mi Calm Calm - N/A   Clear
7:54 AM 34.0 °F - 30.9 °F 89% 30.26 in 10.0 mi Calm Calm - N/A   Clear
8:54 AM 42.1 °F 39.2 °F 36.0 °F 79% 30.28 in 10.0 mi NNW 4.6 mph - N/A   Clear
9:54 AM 46.0 °F 41.9 °F 37.0 °F 71% 30.28 in 10.0 mi NNE 8.1 mph - N/A   Clear
10:54 AM 50.0 °F - 37.9 °F 63% 30.29 in 10.0 mi Variable 5.8 mph - N/A   Clear
11:54 AM 52.0 °F - 37.9 °F 59% 30.28 in 10.0 mi NW 5.8 mph - N/A   Clear
12:54 PM 55.9 °F - 39.0 °F 53% 30.25 in 10.0 mi NNW 4.6 mph - N/A   Clear
1:54 PM 57.9 °F - 37.9 °F 47% 30.23 in 10.0 mi Calm Calm - N/A   Clear
2:54 PM 61.0 °F - 37.9 °F 42% 30.20 in 10.0 mi NNW 5.8 mph - N/A   Clear
3:54 PM 61.0 °F - 37.0 °F 41% 30.17 in 10.0 mi Variable 3.5 mph - N/A   Clear
4:54 PM 63.0 °F - 36.0 °F 37% 30.15 in 10.0 mi Calm Calm - N/A   Clear
5:54 PM 60.1 °F - 37.0 °F 42% 30.13 in 10.0 mi SE 3.5 mph - N/A   Clear
6:54 PM 57.0 °F - 37.9 °F 49% 30.13 in 10.0 mi SSE 3.5 mph - N/A   Clear
7:54 PM 51.1 °F - 39.0 °F 63% 30.14 in 10.0 mi South 3.5 mph - N/A   Clear
8:54 PM 48.0 °F - 39.0 °F 71% 30.12 in 10.0 mi Calm Calm - N/A   Clear
9:54 PM 50.0 °F - 39.9 °F 68% 30.11 in 10.0 mi Calm Calm - N/A   Clear
10:54 PM 46.9 °F - 39.0 °F 74% 30.09 in 10.0 mi ESE 3.5 mph - N/A   Clear
11:54 PM 48.0 °F - 39.0 °F 71% 30.08 in 10.0 mi SE 5.8 mph - N/A   Clear